Regional Weather Roundup
Issued by NWS Raleigh/Durham, NC

Home | Current Version | Previous Version | Text Only | Print | Product List | Glossary On
Versions: 1 2 3 4 5 6 7 8 9 10 11 12 13 14 15 16 17 18 19 20 21 22 23 24 25 26 27 28 29 30 31 32 33 34 35 36 37 38 39 40 41 42 43 44 45 46 47 48 49 50
000
ASUS42 KRAH 282010
RWRRAH
NORTH CAROLINA WEATHER ROUNDUP
NATIONAL WEATHER SERVICE RALEIGH NC
400 PM EDT THU MAY 28 2015

NOTE: "FAIR" INDICATES FEW OR NO CLOUDS BELOW 12,000 FEET WITH NO
SIGNIFICANT WEATHER AND/OR OBSTRUCTIONS TO VISIBILITY.

NCZ001-053-055-056-065-067-282100-
WESTERN NORTH CAROLINA

CITY           SKY/WX    TMP DP  RH WIND       PRES   REMARKS
ASHEVILLE      LGT RAIN  69  58  67 E6        30.26S
JEFFERSON      DRIZZLE   67  61  82 SE5       30.29F
MORGANTON      MOSUNNY   86  59  39 E5        30.21F
HICKORY        PTSUNNY   86  61  42 VRB3      30.17F
RUTHERFORDTON  PTSUNNY   83  65  54 SE3       30.18F
MOUNT AIRY     SUNNY     84  68  58 E12       30.21F
BOONE          CLOUDY    71  60  67 NE5       30.28F
$$

NCZ021-022-025-041-071-084-088-282100-
CENTRAL NORTH CAROLINA

CITY           SKY/WX    TMP DP  RH WIND       PRES   REMARKS
CHARLOTTE      PTSUNNY   87  62  43 E12G17    30.16F
GREENSBORO     MOSUNNY   84  62  47 SE6       30.17F
WINSTON-SALEM  SUNNY     86  62  44 VRB3      30.18F
RALEIGH-DURHAM PTSUNNY   84  69  60 VRB6      30.17F
FORT BRAGG     MOSUNNY   85  67  53 VRB5      30.16F
FAYETTEVILLE   SUNNY     85  66  53 S7        30.17F
BURLINGTON     MOSUNNY   87  65  47 S6        30.17F
LAURINBURG     MOSUNNY   86  65  49 SE7       30.18F
$$

NCZ011-015-027-028-043-044-047-080-103-282100-
NORTHEASTERN NORTH CAROLINA

CITY           SKY/WX    TMP DP  RH WIND       PRES   REMARKS
ROCKY MT-WILSO MOSUNNY   87  68  52 S7        30.18F
GREENVILLE     MOSUNNY   86  68  54 S7        30.19F
WASHINGTON     MOSUNNY   83  67  56 S6        30.19F
ELIZABETH CITY PTSUNNY   83  71  67 SE13      30.20F
MANTEO         PTSUNNY   78  63  59 S10       30.23F
CAPE HATTERAS  SUNNY     81  61  50 S8        30.24S
$$

NCZ078-087-090-091-093-098-101-282100-
SOUTHEASTERN NORTH CAROLINA

CITY           SKY/WX    TMP DP  RH WIND       PRES   REMARKS
LUMBERTON      MOSUNNY   89  65  44 SE8       30.16F
GOLDSBORO      PTSUNNY   85  66  53 CALM      30.15F
KINSTON        MOSUNNY   86  64  48 S6        30.19F
KENANSVILLE    MOSUNNY   85  65  51 SE5       30.19F
NEW BERN       MOSUNNY   84  65  52 SE9       30.21F
CHERRY POINT   MOSUNNY   81  63  54 S5        30.22F
BEAUFORT       SUNNY     77  63  61 S8        30.22F
JACKSONVILLE   SUNNY     81  63  54 S10       30.20F
WILMINGTON     SUNNY     80  62  54 SE9       30.21F
$$




USA.gov is the U.S. government's official web portal to all federal, state and local government web resources and services.